星链-5480 (STARLINK-5480 )

导读

STARLINK-5480是美国SpaceX公司星链(Starlink)星座中的一颗低轨卫星互联网卫星,于2023年2月17日由猎鹰9号运载火箭发射入轨。它属于星链第二代卫星组网的组成部分,运行在近地轨道,配备相控阵天线与霍尔推进器,可自主规避太空碎片,为全球提供高速低延迟的宽带互联网服务,是星链计划规模化组网过程中的一颗标准卫星。

基本信息
目录编号:
55664
目录名称:
STARLINK-5480
国际标识:
2023-021AN
轨道中心:
EARTH
卫星名称:
星链-5480
卫星全名:
星链-5480 (STARLINK-5480 )
卫星状态:
在轨 (已飞行1214 天)
发射日期:
2023-02-17 UTC
国别 :
美国 (US)
星等 :
--
轨道信息
数据来源 国际轨道数据
星历时间: 2026-06-14T23:12:00+0800
13小时前
查看轨道信息
半长轴: 6950.189km
偏心率: 0.000329
轨道倾角: 70.000°
近地点辐角 269.880°
升交点赤经 280.110°
平近点角 90.198°
近地点: 569.765km
远地点: 574.339km
周期: 96.107分钟
每日圈数: 14.983314
详细信息
固有亮度:
5
最大亮度:
2.5
卫星平台:
Starlink v1.5
覆盖范围:
全球
运营商:
太空探索技术公司
运营商所在国:
美国
制造商(研发单位):
太空探索技术公司
制造商所在国:
美国
使用方式:
暂无
卫星简介
星链(Starlink)计划是由太空探索技术公司(SpaceX)提出的一个巨型低轨卫星互联网星座项目,计划在2019年至2024年间在太空搭建由约1.2万颗卫星组成的“星链”网络,其中1584颗将部署在地球上空550千米处的近地轨道,并从2020年开始工作。该卫星仍在工作。
2D轨道图
3D轨道图
轨道高度分析图
轨道倾角分析图
轨道综合分析图
查看轨道综合分析图